Regional Weather Roundup
Issued by NWS

Home | Current Version | Previous Version | Text Only | Print | Product List | Glossary Off
Versions: 1 2 3 4 5 6 7 8 9 10 11 12 13 14 15 16 17 18 19 20 21 22 23 24 25 26 27 28 29 30 31 32 33 34 35 36 37 38 39 40 41 42 43 44 45 46 47 48 49 50

000
ASUS43 KLOT 280806
RWRIL

ILLINOIS REGIONAL WEATHER ROUNDUP
NATIONAL WEATHER SERVICE CHICAGO/ROMEOVILLE IL
200 AM CST WED JAN 28 2015

NOTE: "FAIR" INDICATES FEW OR NO CLOUDS BELOW 12,000 FEET WITH NO
SIGNIFICANT WEATHER AND/OR OBSTRUCTIONS TO VISIBILITY.

* THESE STATIONS ARE NOT UNDER NWS QUALITY CONTROL. THEY ALSO MAY NOT
  REPORT WEATHER SUCH AS PRECIPITATION OR FOG.

ILZ001-002-007-009-015-016-024-280900-
NORTHWEST ILLINOIS

CITY           SKY/WX    TMP DP  RH WIND       PRES   REMARKS
MOLINE         CLOUDY    28  23  81 SE6       30.24R WCI  22
STERLING*      CLOUDY    23  19  86 SE5       30.25F WCI  17
SAVANNA*       CLOUDY    29  25  82 SE7       30.23F WCI  22
$$

ILZ003-004-008-010-011-017-018-280900-
NORTH CENTRAL ILLINOIS

CITY           SKY/WX    TMP DP  RH WIND       PRES   REMARKS
ROCKFORD       CLOUDY    23  17  78 SE3       30.27S
FREEPORT*      PTCLDY    19  16  87 SE6       30.26S WCI  11
ROCHELLE*      MOCLDY    18  15  89 SE5       30.26S WCI  11
DE KALB*       CLOUDY    19  15  84 SE5       30.26R WCI  12
PERU*          CLOUDY    26  22  85 S6        30.27R WCI  19
$$

ILZ005-006-012>014-019>023-280900-
NORTHEAST ILLINOIS

CITY           SKY/WX    TMP DP  RH WIND       PRES   REMARKS
CHICAGO-OHARE  MOCLDY    23  18  81 W5        30.26R WCI  17
CHICAGO-MIDWAY MOCLDY    25  20  81 CALM      30.27S
AURORA         CLEAR     19  15  84 CALM      30.27R
LANSING*       MOCLDY    20  18  92 S3        30.27F
JOLIET*        CLEAR     17  16  93 CALM      30.29R
WAUKEGAN       MOCLDY    22  17  81 SW6       30.26R WCI  14
DUPAGE AIRPORT PTCLDY    19  15  84 CALM      30.26S
KANKAKEE*      PTCLDY    20  18  93 CALM      30.29R
WHEELING       MOCLDY    23  18  81 CALM      30.28R
MORRIS*        PTCLDY    22  20  89 CALM      30.27S
ROMEOVILLE*    CLEAR     21  18  88 W3        30.28R
NORTHERLY ISL    N/A     28  19  69 SE1         N/A
$$

LMZ740>746-280900-
SOUTHERN LAKE MICHIGAN

STATION/POSITION SKY/WX   TEMP    WIND        PRES    VSBY  WAVE
                          AIR SEA DIR/SP/G                  HT/PER
                          (F)     (DEG/KT/KT) (MB)    (MI)  (FT/S)
WAUKEGAN HARBOR            25     280/  4/  6   N/A
HARRISON CRIB              28     170/  2/  4   N/A
BURNHAM HARBOR             28     170/  1/  3   N/A
CALUMET HARBOR             26     180/  3/  4   N/A
MICHIGAN CITY              22     130/  6/  8   N/A
$$

ILZ025>027-034>036-040-047-049-050-058-095>099-280900-
WEST-CENTRAL ILLINOIS

CITY           SKY/WX    TMP DP  RH WIND       PRES   REMARKS
QUINCY         CLEAR     28  25  88 SE10      30.20F FOG     WCI  19
GALESBURG*     CLOUDY    28  26  91 SE6       30.23S WCI  22
MACOMB*        CLOUDY    30  28  93 SE10      30.25F WCI  21
JACKSONVILLE*  CLEAR     29  26  86 E7        30.25R WCI  22
PITTSFIELD*    CLEAR     28  26  94 E6        30.23F FOG     WCI  21
$$

ILZ028>032-037-038-041>044-048-051>054-059>061-280900-
CENTRAL ILLINOIS

CITY           SKY/WX    TMP DP  RH WIND       PRES   REMARKS
PONTIAC        CLEAR     25  22  87 E7        30.28R WCI  17
BLOOMINGTON    CLEAR     25  23  91 E6        30.26R FOG     WCI  18
DECATUR        CLEAR     24  20  84 SE7       30.26S WCI  16
PEORIA         CLOUDY    30  23  75 SE6       30.26R WCI  24
LACON*         CLOUDY    29  24  81 SE3       30.26S
LINCOLN*       CLEAR     27  24  87 SE3       30.28R
SPRINGFIELD    CLEAR     26  21  81 SE7       30.26S WCI  18
TAYLORVILLE    CLEAR     27  23  86 E7        30.26S WCI  19
$$

ILZ033-039-045-046-055>057-062-063-280900-
EAST-CENTRAL ILLINOIS

CITY           SKY/WX    TMP DP  RH WIND       PRES   REMARKS
CHAMPAIGN      CLEAR     19  16  88 E5        30.27S WCI  12
DANVILLE*      CLEAR     19  17  93 CALM      30.25S
RANTOUL*       CLEAR     22  19  87 E3        30.27S
MATTOON        CLEAR     20  17  88 SE5       30.26S WCI  13
PARIS*         CLEAR     19  18  96 CALM      30.28F
$$

ILZ079-100>102-280900-
SOUTHWEST ILLINOIS

CITY           SKY/WX    TMP DP  RH WIND       PRES   REMARKS
ALTON          CLEAR     27  26  96 E3        30.26S FOG
BELLEVILLE     CLEAR     25  25 100 CALM      30.26S
CAHOKIA*       CLEAR     27  25  92 SE5       30.25F WCI  22
SPARTA*        CLEAR     27  26  93 CALM      30.27R
$$

ILZ064>066-069>071-074>076-080>082-084>086-088>090-092>094-280900-
SOUTH-CENTRAL ILLINOIS

CITY           SKY/WX    TMP DP  RH WIND       PRES   REMARKS
CARBONDALE     CLEAR     28  25  88 CALM      30.27R
CAIRO*         CLEAR     30  28  89 CALM      30.27R
EFFINGHAM*     CLEAR     27  19  73 E5        30.29S WCI  22
MARION         CLEAR     30  27  86 E3        30.27S
MT. VERNON     CLEAR     25  19  80 E6        30.26F WCI  18
CENTRALIA*     CLEAR     27  24  89 E5        30.26S WCI  21
SALEM*         FAIR      29  25  84 E3        30.26S
METROPOLIS*    CLEAR     26  26 100 NE5       30.25F FOG     WCI  20
$$

ILZ067-068-072-073-078-083-087-091-280900-
SOUTHEAST ILLINOIS

CITY           SKY/WX    TMP DP  RH WIND       PRES   REMARKS
LAWRENCEVILLE  CLEAR     25  22  88 NE5       30.30R WCI  19
FLORA*         CLEAR     26  23  88 E3        30.29R
FAIRFIELD*     CLEAR     27  24  87 CALM      30.28R
HARRISBURG*    CLEAR     29  28  96 CALM      30.29R
ROBINSON*      FAIR      21  21  98 CALM      30.31R FOG
CARMI*         CLEAR     27  26  96 CALM      30.29R
$$

ABBREVIATIONS USED IN REMARKS
   TC - TEMPERATURE IN CELSIUS
  WCI - WIND CHILL INDEX
   HX - HEAT INDEX
  VSB - VISIBILITY
$$



USA.gov is the U.S. government's official web portal to all federal, state and local government web resources and services.